AirNav   Air Wisconsin pilot careers
 
 361 users online  

KTNT Dade-Collier Training and Transition Airport
Miami, Florida, USA


FAA INFORMATION EFFECTIVE 01 FEBRUARY 2018

Location

FAA Identifier: TNT
Lat/Long: 25-51-42.5000N / 080-53-49.2000W
25-51.708333N / 080-53.820000W
25.8618056 / -80.8970000
(estimated)
Elevation: 12.7 ft. / 3.9 m (surveyed)
Variation: 05W (2005)
From city: 36 miles W of MIAMI, FL
Time zone: UTC -5 (UTC -4 during Daylight Saving Time)
Zip code: 34141

Airport Operations

Airport use: Open to the public, ARPT CLSD TO PUBLIC EXCP BY ARRANGEMENT WITH MIAMI-DADE AVIATION DEPT MIAMI 305-869-1660.
Control tower: no
ARTCC: MIAMI CENTER
FSS: MIAMI FLIGHT SERVICE STATION
NOTAMs facility: MIA (NOTAM-D service available)
Attendance: CONTINUOUS
Wind indicator: lighted
Segmented circle: yes
Lights: DUSK-DAWN. ACTVT HIRL RY 09/27, PAPI RY 27 - CTAF OR BY CALLING 239-695-3300.
Beacon: white-green (lighted land airport)
Operates sunset to sunrise.
Landing fee: yes

Airport Communications

CTAF/UNICOM: 123.0
WX AWOS-3: 119.075 ((239) 695-9198)
MIAMI APPROACH: 128.6
MIAMI DEPARTURE: 128.6
  • APCH/DEP SVC PRVDD BY MIAMI ATCT ON FREQS 128.6/306.975

Nearby radio navigation aids

VOR radial/distance  VOR name  Freq  Var
DHPr281/29.8DOLPHIN VORTAC113.9004W

 
NDB name  Hdg/Dist  Freq  Var  ID
MONRY095/6.222705WTN - -.

Airport Services

Airframe service: NONE
Powerplant service: NONE
Bottled oxygen: NONE
Bulk oxygen: NONE

Runway Information

Runway 9/27

Dimensions: 10499 x 150 ft. / 3200 x 46 m
Surface: asphalt/porous friction courses, in good condition
Weight bearing capacity: 
Single wheel: 130.0
Double wheel: 200.0
Double tandem: 400.0
Dual double tandem: 800.0
Runway edge lights: high intensity
RUNWAY 9  RUNWAY 27
Latitude: 25-51.708232N25-51.707022N
Longitude: 080-54.777252W080-52.861753W
Elevation: 12.6 ft.12.4 ft.
Traffic pattern: leftright
Runway heading: 095 magnetic, 090 true275 magnetic, 270 true
Markings: precision, in fair conditionprecision, in fair condition
Visual slope indicator: 4-light PAPI on left (3.00 degrees glide path)
Approach lights: MALSR: 1,400 foot medium intensity approach lighting system with runway alignment indicator lights
Touchdown point: yes, no lightsyes, no lights
Instrument approach: ILS
Obstructions: 4 ft. brush, 200 ft. from runway, 295 ft. right of centerline
+4' BRUSH, 13' FM RY END, 295' R OF CNTRLN.
4 ft. brush, 200 ft. from runway, 327 ft. right of centerline
+4' BRUSH, 56' FM RY END, 327' R OF CNTRLN.

Airport Ownership and Management from official FAA records

Ownership: Publicly-owned
Owner: MIAMI-DADE COUNTY
MIAMI-DADE AVIATION DEPARTMENT, P.O. BOX 025504
MIAMI, FL 33102-5504
Phone (305) 876-0464
Manager: NELSON MEJIAS
14201 NORTHWEST LEJEUNE ROAD
OPA-LOCKA, FL 33054
Phone (305) 869-1662
AIRPORT PHYSICAL ADDRESS: 54757 EAST TAMIAMI TRAIL, OCHOPPI, FL 34141 239-695-3300, FAX: 305-876-0565

Airport Operational Statistics

Aircraft operations: avg 40/day *
100% transient general aviation
* for 12-month period ending 26 October 2016

Additional Remarks

A100 ACR TRNG OPNS ONLY.
THREE 8IN WELLS FLUSH MTD BTN RWY AND TWY.
FEE FOR USE FOR ACFT OVER 12500 LBS.
MAEW IN BUFFER ISLAND BTN RY 09/27 & TWY.
WILDLIFE OCCASIONALLY ON & INVOF ARPT.
BE ALERT TO LOW FLYING NATIONAL PARK SVC ACFT ALL QUADRANTS.

Instrument Procedures

NOTE: All procedures below are presented as PDF files. If you need a reader for these files, you should download the free Adobe Reader.

NOT FOR NAVIGATION. Please procure official charts for flight.
FAA instrument procedures published for use between 1 February 2018 at 0901Z and 1 March 2018 at 0900Z.

 
IAPs - Instrument Approach Procedures
ILS OR LOC RWY 09   download (225KB)
RNAV (GPS) RWY 09   download (252KB)
NDB RWY 09   download (188KB)

Other nearby airports with instrument procedures:

KTMB - Miami Executive Airport (28 nm SE)
X51 - Miami Homestead General Aviation Airport (29 nm SE)
KMIA - Miami International Airport (33 nm E)
KOPF - Miami-Opa Locka Executive Airport (34 nm E)
KHST - Homestead Air Reserve Base (36 nm SE)
 
Loc | Ops | Rwys | IFR | FBO | Links
Com | Nav | Svcs | Stats | Notes


 
Area around KTNT (Dade-Collier Training and Transition Airport)
 
Road maps at: MapQuest Bing Google
 
Aerial photo
WARNING: Photo may not be current or correct
Aerial photo of KTNT (Dade-Collier Training and Transition Airport)
Do you have a better or more recent aerial photo of Dade-Collier Training and Transition Airport that you would like to share? If so, please send us your photo.

 
Sectional chart

 
Airport distance calculator
Flying to Dade-Collier Training and Transition Airport? Find the distance to fly.

From to KTNT

Sunrise and sunset
Times for 20-Feb-2018
 Local
(UTC-5)
 Zulu
(UTC)
Morning civil twilight06:3311:33
Sunrise06:5611:56
Sunset18:1923:19
Evening civil twilight18:4223:42

Current date and time
Zulu (UTC)  20-Feb-2018 10:16:27
Local (UTC-5)  20-Feb-2018 05:16:27
 
METAR
KTMB 
28nm SE 
201000Z AUTO 11016KT 10SM SCT022 23/21 A3023 RMK AO2 T02330206
KMIA 
32nm E 
200953Z 10014G22KT 10SM SCT020 BKN065 25/21 A3024 RMK AO2 SLP239 T02500211 $
KOPF 
33nm E 
200953Z AUTO 11014G21KT 10SM FEW021 SCT028 BKN055 24/21 A3024 RMK AO2 RAB05E17 SLP241 P0000 T02390211 $
KHWO 
37nm E 
200953Z AUTO 11011G21KT 10SM FEW022 BKN039 OVC060 24/21 A3025 RMK AO2 RAB29E39 SLP245 P0000 T02440211
KHST 
37nm SE 
200956Z AUTO 08014G20KT 10SM SCT060 24/21 A3022 RMK AO2 SLP237 T02400209
KFLL 
42nm E 
200953Z 11015KT 10SM SCT020 BKN065 24/22 A3023 RMK AO2 SLP238 T02440217
KMKY 
43nm W 
201003Z AUTO 10005KT 4SM -RA BR FEW007 BKN031 OVC044 22/21 A3024 RMK AO2 P0000
KFXE 
43nm NE 
200953Z 09015KT 10SM SCT022 BKN031 OVC060 24/21 A3025 RMK AO2 SLP244 T02440211 $
KIMM 
44nm NW 
200955Z AUTO 07004KT 10SM OVC050 22/21 A3025 RMK AO2
KPMP 
48nm NE 
200953Z AUTO 10014G23KT 9SM SCT022 BKN028 BKN032 24/21 A3025 RMK AO2 SLP244 T02440211
TAF
KTMB 
28nm SE 
200543Z 2006/2106 10016KT P6SM FEW015 SCT025 BKN050 FM201400 12015G24KT P6SM FEW025 SCT050 FM210000 10009KT P6SM FEW025 SCT050
KMIA 
32nm E 
200543Z 2006/2112 10016KT P6SM FEW015 SCT025 BKN050 FM201500 12017G27KT P6SM FEW025 SCT050 FM202100 11013G23KT P6SM FEW025 SCT050 FM210000 10011KT P6SM FEW025 SCT050
KOPF 
33nm E 
200543Z 2006/2106 10016KT P6SM FEW015 SCT025 BKN050 FM201400 12017G27KT P6SM FEW025 SCT050 FM210000 10011KT P6SM FEW025 SCT050
NOTAMs
Click for the latest NOTAMs
NOTAMs are issued by the DoD/FAA and will open in a separate window not controlled by AirNav.

 

 
 

Would you like to see your business listed on this page?

 If your business provides an interesting product or service to pilots, flight crews, aircraft, or users of the Dade-Collier Training and Transition Airport, you should consider listing it here.  To start the listing process, click on the button below
 
Add a business
 

Other Pages about Dade-Collier Training and Transition Airport

Update a link
 
Copyright © AirNav, LLC. All rights reserved. Privacy Policy  Contact